Hlavní strana
METAR-TAF:

METAR-TAF

Letiště :

Fairfield County Airport

Lancaster, Ohio, Spojené státy americké

zeměpisná šířka: 39-45-26N, zeměpisná délka: 082-39-48W, výška: 264 m

Aktuální stav počasí

Zpráva byla vytvořena před 1 hodinou a 8 minutami, v 09:53 UTC
Východojihovýchodní vítr 5 kt
Teplota -12°C
Vlhkost vzduchu 66%
Tlak 1034 hPa
Viditelnost: 16.1 km
Zataženo ve výšce 11000 ft

METAR: KLHQ 220953Z AUTO 12005KT 10SM OVC110 M12/M17 A3052 RMK AO2 SLP351 T11221167

Čas: 06:01 (11:01 UTC)


TAF: chybějící

Stav a předpovědi počasí z více než 4 000 letišť (zprávy METAR a TAF).

Červené a žluté tečky na mapě představují dostupné meteorologické stanice.

Když kurzor umístíte na tečku, zobrazí se název stanice.

Pak kliknutím zobrazíte stav a předpověď počasí.

Chcete-li změnit mapu, kliknutím na zelené tlačítko se znaménkem +mapu přiblížíte, kliknutím na zelené tlačítko se znaménkem – mapu oddálíte a kliknutím na zelené šipky přejdete na sousední mapy.


METAR-TAF: